contact:dominique.lefevre@mio.osupytheas.fr, maurice.libes@osupytheas.fr, didier.mallarino@osupytheas.fr
Project:EMSO http://www.emso-fr.org/EMSO-France
Depth: 2436.0 m
Title:EMSO Ligure Ouest : Data MII capteur MICROCAT
DateTime_Computer,Latitude,Longitude,Temperature,Conductivity,Pressure,DateTime_Instrument
DateTime_Computer,Latitude,Longitude,degC,S m-1,dbar,DateTime_Instrument
2019-06-09T00:02:06Z,42.805,6.029,13.2953,4.59950,2469.923,2019-6-09T02:02:22Z
2019-06-09T00:05:09Z,42.805,6.029,13.2952,4.59951,2469.9,2019-6-09T02:05:24Z
2019-06-09T00:08:12Z,42.805,6.029,13.2952,4.59951,2469.886,2019-6-09T02:08:27Z
2019-06-09T00:11:15Z,42.805,6.029,13.2946,4.59951,2469.914,2019-6-09T02:11:30Z
2019-06-09T00:14:18Z,42.805,6.029,13.2953,4.59950,2469.923,2019-6-09T02:14:33Z
2019-06-09T00:17:21Z,42.805,6.029,13.2952,4.59950,2469.923,2019-6-09T02:17:36Z
2019-06-09T00:20:24Z,42.805,6.029,13.2949,4.59951,2469.937,2019-6-09T02:20:39Z
2019-06-09T00:23:26Z,42.805,6.029,13.2949,4.59951,2469.923,2019-6-09T02:23:42Z
2019-06-09T00:26:29Z,42.805,6.029,13.2952,4.59950,2469.914,2019-6-09T02:26:45Z
2019-06-09T00:29:32Z,42.805,6.029,13.2953,4.59951,2469.914,2019-6-09T02:29:48Z
2019-06-09T00:32:35Z,42.805,6.029,13.2950,4.59951,2469.9,2019-6-09T02:32:51Z
2019-06-09T00:35:38Z,42.805,6.029,13.2949,4.59950,2469.914,2019-6-09T02:35:54Z
2019-06-09T00:38:41Z,42.805,6.029,13.2952,4.59950,2469.9,2019-6-09T02:38:57Z
2019-06-09T00:41:44Z,42.805,6.029,13.2950,4.59951,2469.914,2019-6-09T02:42:00Z
2019-06-09T00:44:47Z,42.805,6.029,13.2949,4.59950,2469.937,2019-6-09T02:45:03Z
2019-06-09T00:47:50Z,42.805,6.029,13.2954,4.59951,2469.9,2019-6-09T02:48:06Z
2019-06-09T00:50:53Z,42.805,6.029,13.2954,4.59952,2469.914,2019-6-09T02:51:09Z
2019-06-09T00:53:56Z,42.805,6.029,13.2950,4.59950,2469.914,2019-6-09T02:54:12Z
2019-06-09T00:56:59Z,42.805,6.029,13.2951,4.59950,2469.947,2019-6-09T02:57:14Z
2019-06-09T01:00:02Z,42.805,6.029,13.2948,4.59951,2469.9,2019-6-09T03:00:17Z
2019-06-09T01:03:05Z,42.805,6.029,13.2950,4.59950,2469.9,2019-6-09T03:03:20Z
2019-06-09T01:06:08Z,42.805,6.029,13.2953,4.59950,2469.876,2019-6-09T03:06:23Z
2019-06-09T01:09:11Z,42.805,6.029,13.2953,4.59949,2469.914,2019-6-09T03:09:26Z
2019-06-09T01:12:14Z,42.805,6.029,13.2954,4.59950,2469.914,2019-6-09T03:12:29Z
2019-06-09T01:15:17Z,42.805,6.029,13.2951,4.59950,2469.89,2019-6-09T03:15:32Z
2019-06-09T01:18:19Z,42.805,6.029,13.2948,4.59949,2469.876,2019-6-09T03:18:35Z
2019-06-09T01:21:22Z,42.805,6.029,13.2950,4.59949,2469.853,2019-6-09T03:21:38Z
2019-06-09T01:24:25Z,42.805,6.029,13.2953,4.59951,2469.914,2019-6-09T03:24:41Z
2019-06-09T01:27:28Z,42.805,6.029,13.2948,4.59948,2469.876,2019-6-09T03:27:44Z
2019-06-09T01:30:31Z,42.805,6.029,13.2952,4.59949,2469.9,2019-6-09T03:30:47Z
2019-06-09T01:33:34Z,42.805,6.029,13.2947,4.59949,2469.9,2019-6-09T03:33:50Z
2019-06-09T01:36:37Z,42.805,6.029,13.2950,4.59949,2469.881,2019-6-09T03:36:53Z
2019-06-09T01:39:40Z,42.805,6.029,13.2947,4.59949,2469.914,2019-6-09T03:39:56Z
2019-06-09T01:42:43Z,42.805,6.029,13.2951,4.59949,2469.876,2019-6-09T03:42:59Z
2019-06-09T01:45:46Z,42.805,6.029,13.2950,4.59948,2469.876,2019-6-09T03:46:02Z
2019-06-09T01:48:49Z,42.805,6.029,13.2952,4.59949,2469.876,2019-6-09T03:49:05Z
2019-06-09T01:51:52Z,42.805,6.029,13.2950,4.59948,2469.89,2019-6-09T03:52:07Z
2019-06-09T01:54:55Z,42.805,6.029,13.2946,4.59948,2469.89,2019-6-09T03:55:10Z
2019-06-09T01:57:58Z,42.805,6.029,13.2953,4.59948,2469.89,2019-6-09T03:58:13Z
2019-06-09T02:01:01Z,42.805,6.029,13.2948,4.59948,2469.89,2019-6-09T04:01:16Z
2019-06-09T02:04:04Z,42.805,6.029,13.2948,4.59948,2469.914,2019-6-09T04:04:19Z
2019-06-09T02:07:07Z,42.805,6.029,13.2953,4.59948,2469.89,2019-6-09T04:07:22Z
2019-06-09T02:10:10Z,42.805,6.029,13.2950,4.59948,2469.876,2019-6-09T04:10:25Z
2019-06-09T02:13:12Z,42.805,6.029,13.2950,4.59948,2469.853,2019-6-09T04:13:28Z
2019-06-09T02:16:15Z,42.805,6.029,13.2948,4.59949,2469.867,2019-6-09T04:16:31Z
2019-06-09T02:19:18Z,42.805,6.029,13.2949,4.59949,2469.876,2019-6-09T04:19:34Z
2019-06-09T02:22:21Z,42.805,6.029,13.2946,4.59949,2469.89,2019-6-09T04:22:37Z
2019-06-09T02:25:24Z,42.805,6.029,13.2952,4.59950,2469.9,2019-6-09T04:25:40Z
2019-06-09T02:28:27Z,42.805,6.029,13.2950,4.59948,2469.867,2019-6-09T04:28:43Z
2019-06-09T02:31:30Z,42.805,6.029,13.2952,4.59949,2469.89,2019-6-09T04:31:46Z
2019-06-09T02:34:33Z,42.805,6.029,13.2952,4.59948,2469.867,2019-6-09T04:34:49Z
2019-06-09T02:37:36Z,42.805,6.029,13.2948,4.59949,2469.83,2019-6-09T04:37:52Z
2019-06-09T02:40:39Z,42.805,6.029,13.2951,4.59948,2469.89,2019-6-09T04:40:55Z
2019-06-09T02:43:42Z,42.805,6.029,13.2953,4.59948,2469.853,2019-6-09T04:43:58Z
2019-06-09T02:46:45Z,42.805,6.029,13.2951,4.59948,2469.83,2019-6-09T04:47:00Z
2019-06-09T02:49:48Z,42.805,6.029,13.2951,4.59948,2469.83,2019-6-09T04:50:03Z
2019-06-09T02:52:51Z,42.805,6.029,13.2947,4.59948,2469.867,2019-6-09T04:53:06Z
2019-06-09T02:55:54Z,42.805,6.029,13.2949,4.59948,2469.853,2019-6-09T04:56:09Z
2019-06-09T02:58:57Z,42.805,6.029,13.2952,4.59950,2469.89,2019-6-09T04:59:12Z
2019-06-09T03:02:00Z,42.805,6.029,13.2950,4.59950,2469.867,2019-6-09T05:02:15Z
2019-06-09T03:05:02Z,42.805,6.029,13.2951,4.59951,2469.853,2019-6-09T05:05:18Z
2019-06-09T03:08:05Z,42.805,6.029,13.2952,4.59948,2469.83,2019-6-09T05:08:21Z
2019-06-09T03:11:08Z,42.805,6.029,13.2952,4.59949,2469.844,2019-6-09T05:11:24Z
2019-06-09T03:14:11Z,42.805,6.029,13.2952,4.59950,2469.853,2019-6-09T05:14:27Z
2019-06-09T03:17:14Z,42.805,6.029,13.2950,4.59949,2469.853,2019-6-09T05:17:30Z
2019-06-09T03:20:17Z,42.805,6.029,13.2953,4.59949,2469.867,2019-6-09T05:20:33Z
2019-06-09T03:23:20Z,42.805,6.029,13.2950,4.59950,2469.853,2019-6-09T05:23:36Z
2019-06-09T03:26:23Z,42.805,6.029,13.2950,4.59949,2469.867,2019-6-09T05:26:39Z
2019-06-09T03:29:26Z,42.805,6.029,13.2952,4.59951,2469.83,2019-6-09T05:29:42Z
2019-06-09T03:32:29Z,42.805,6.029,13.2953,4.59948,2469.853,2019-6-09T05:32:45Z
2019-06-09T03:35:32Z,42.805,6.029,13.2948,4.59950,2469.853,2019-6-09T05:35:48Z
2019-06-09T03:38:35Z,42.805,6.029,13.2953,4.59948,2469.844,2019-6-09T05:38:50Z
2019-06-09T03:41:38Z,42.805,6.029,13.2953,4.59948,2469.844,2019-6-09T05:41:53Z
2019-06-09T03:44:41Z,42.805,6.029,13.2949,4.59948,2469.797,2019-6-09T05:44:56Z
2019-06-09T03:47:44Z,42.805,6.029,13.2948,4.59949,2469.844,2019-6-09T05:47:59Z
2019-06-09T03:50:47Z,42.805,6.029,13.2950,4.59951,2469.806,2019-6-09T05:51:02Z
2019-06-09T03:53:50Z,42.805,6.029,13.2950,4.59951,2469.844,2019-6-09T05:54:05Z
2019-06-09T03:56:53Z,42.805,6.029,13.2952,4.59949,2469.83,2019-6-09T05:57:08Z
2019-06-09T03:59:55Z,42.805,6.029,13.2946,4.59950,2469.821,2019-6-09T06:00:11Z
2019-06-09T04:02:58Z,42.805,6.029,13.2953,4.59950,2469.76,2019-6-09T06:03:14Z
2019-06-09T04:06:01Z,42.805,6.029,13.2948,4.59950,2469.844,2019-6-09T06:06:17Z
2019-06-09T04:09:04Z,42.805,6.029,13.2953,4.59951,2469.83,2019-6-09T06:09:20Z
2019-06-09T04:12:07Z,42.805,6.029,13.2950,4.59951,2469.806,2019-6-09T06:12:23Z
2019-06-09T04:15:10Z,42.805,6.029,13.2951,4.59949,2469.821,2019-6-09T06:15:26Z
2019-06-09T04:18:13Z,42.805,6.029,13.2951,4.59948,2469.797,2019-6-09T06:18:29Z
2019-06-09T04:21:16Z,42.805,6.029,13.2946,4.59952,2469.797,2019-6-09T06:21:32Z
2019-06-09T04:24:19Z,42.805,6.029,13.2954,4.59949,2469.83,2019-6-09T06:24:35Z
2019-06-09T04:27:22Z,42.805,6.029,13.2952,4.59951,2469.821,2019-6-09T06:27:38Z
2019-06-09T04:30:25Z,42.805,6.029,13.2952,4.59952,2469.806,2019-6-09T06:30:41Z
2019-06-09T04:33:28Z,42.805,6.029,13.2950,4.59950,2469.806,2019-6-09T06:33:43Z
2019-06-09T04:36:31Z,42.805,6.029,13.2948,4.59950,2469.806,2019-6-09T06:36:46Z
2019-06-09T04:39:34Z,42.805,6.029,13.2948,4.59951,2469.783,2019-6-09T06:39:49Z
2019-06-09T04:42:37Z,42.805,6.029,13.2949,4.59950,2469.797,2019-6-09T06:42:52Z
2019-06-09T04:45:40Z,42.805,6.029,13.2948,4.59949,2469.76,2019-6-09T06:45:55Z
2019-06-09T04:48:43Z,42.805,6.029,13.2953,4.59949,2469.769,2019-6-09T06:48:58Z
2019-06-09T04:51:46Z,42.805,6.029,13.2948,4.59950,2469.797,2019-6-09T06:52:01Z
2019-06-09T04:54:48Z,42.805,6.029,13.2953,4.59950,2469.76,2019-6-09T06:55:04Z
2019-06-09T04:57:51Z,42.805,6.029,13.2948,4.59950,2469.821,2019-6-09T06:58:07Z
2019-06-09T05:00:54Z,42.805,6.029,13.2952,4.59950,2469.737,2019-6-09T07:01:10Z
2019-06-09T05:03:57Z,42.805,6.029,13.2947,4.59951,2469.797,2019-6-09T07:04:13Z
2019-06-09T05:07:00Z,42.805,6.029,13.2951,4.59949,2469.76,2019-6-09T07:07:16Z
2019-06-09T05:10:03Z,42.805,6.029,13.2947,4.59949,2469.783,2019-6-09T07:10:19Z
2019-06-09T05:13:06Z,42.805,6.029,13.2952,4.59949,2469.773,2019-6-09T07:13:22Z
2019-06-09T05:16:09Z,42.805,6.029,13.2952,4.59948,2469.806,2019-6-09T07:16:25Z
2019-06-09T05:19:12Z,42.805,6.029,13.2950,4.59949,2469.76,2019-6-09T07:19:28Z
2019-06-09T05:22:15Z,42.805,6.029,13.2953,4.59950,2469.737,2019-6-09T07:22:31Z
2019-06-09T05:25:18Z,42.805,6.029,13.2948,4.59948,2469.797,2019-6-09T07:25:34Z
2019-06-09T05:28:21Z,42.805,6.029,13.2952,4.59951,2469.737,2019-6-09T07:28:37Z
2019-06-09T05:31:24Z,42.805,6.029,13.2947,4.59948,2469.75,2019-6-09T07:31:39Z
2019-06-09T05:34:27Z,42.805,6.029,13.2954,4.59949,2469.76,2019-6-09T07:34:42Z
2019-06-09T05:37:30Z,42.805,6.029,13.2951,4.59951,2469.75,2019-6-09T07:37:45Z
2019-06-09T05:40:33Z,42.805,6.029,13.2952,4.59949,2469.773,2019-6-09T07:40:48Z
2019-06-09T05:43:36Z,42.805,6.029,13.2950,4.59948,2469.76,2019-6-09T07:43:51Z
2019-06-09T05:46:39Z,42.805,6.029,13.2953,4.59949,2469.737,2019-6-09T07:46:54Z
2019-06-09T05:49:41Z,42.805,6.029,13.2950,4.59949,2469.737,2019-6-09T07:49:57Z
2019-06-09T05:52:44Z,42.805,6.029,13.2952,4.59949,2469.737,2019-6-09T07:53:00Z
2019-06-09T05:55:47Z,42.805,6.029,13.2951,4.59950,2469.75,2019-6-09T07:56:03Z
2019-06-09T05:58:50Z,42.805,6.029,13.2949,4.59948,2469.76,2019-6-09T07:59:06Z
2019-06-09T06:01:53Z,42.805,6.029,13.2948,4.59948,2469.76,2019-6-09T08:02:09Z
2019-06-09T06:04:56Z,42.805,6.029,13.2953,4.59950,2469.773,2019-6-09T08:05:12Z
2019-06-09T06:07:59Z,42.805,6.029,13.2950,4.59950,2469.737,2019-6-09T08:08:15Z
2019-06-09T06:11:02Z,42.805,6.029,13.2952,4.59948,2469.75,2019-6-09T08:11:18Z
2019-06-09T06:14:05Z,42.805,6.029,13.2950,4.59950,2469.773,2019-6-09T08:14:21Z
2019-06-09T06:17:08Z,42.805,6.029,13.2946,4.59948,2469.76,2019-6-09T08:17:24Z
2019-06-09T06:20:11Z,42.805,6.029,13.2949,4.59949,2469.737,2019-6-09T08:20:27Z
2019-06-09T06:23:14Z,42.805,6.029,13.2952,4.59949,2469.737,2019-6-09T08:23:29Z
2019-06-09T06:26:17Z,42.805,6.029,13.2951,4.59948,2469.76,2019-6-09T08:26:32Z
2019-06-09T06:29:20Z,42.805,6.029,13.2948,4.59948,2469.713,2019-6-09T08:29:35Z
2019-06-09T06:32:23Z,42.805,6.029,13.2949,4.59948,2469.737,2019-6-09T08:32:38Z
2019-06-09T06:35:26Z,42.805,6.029,13.2949,4.59948,2469.737,2019-6-09T08:35:41Z
2019-06-09T06:38:29Z,42.805,6.029,13.2946,4.59948,2469.76,2019-6-09T08:38:44Z
2019-06-09T06:41:32Z,42.805,6.029,13.2949,4.59948,2469.76,2019-6-09T08:41:47Z
2019-06-09T06:44:34Z,42.805,6.029,13.2950,4.59949,2469.75,2019-6-09T08:44:50Z
2019-06-09T06:47:37Z,42.805,6.029,13.2951,4.59948,2469.75,2019-6-09T08:47:53Z
2019-06-09T06:50:40Z,42.805,6.029,13.2950,4.59947,2469.737,2019-6-09T08:50:56Z
2019-06-09T06:53:43Z,42.805,6.029,13.2948,4.59948,2469.727,2019-6-09T08:53:59Z
2019-06-09T06:56:46Z,42.805,6.029,13.2948,4.59948,2469.737,2019-6-09T08:57:02Z
2019-06-09T06:59:49Z,42.805,6.029,13.2949,4.59947,2469.76,2019-6-09T09:00:05Z
2019-06-09T07:02:52Z,42.805,6.029,13.2952,4.59947,2469.713,2019-6-09T09:03:08Z
2019-06-09T07:05:55Z,42.805,6.029,13.2946,4.59950,2469.737,2019-6-09T09:06:11Z
2019-06-09T07:08:58Z,42.805,6.029,13.2948,4.59948,2469.727,2019-6-09T09:09:14Z
2019-06-09T07:12:01Z,42.805,6.029,13.2953,4.59948,2469.773,2019-6-09T09:12:17Z
2019-06-09T07:15:04Z,42.805,6.029,13.2953,4.59948,2469.773,2019-6-09T09:15:20Z
2019-06-09T07:18:07Z,42.805,6.029,13.2952,4.59948,2469.737,2019-6-09T09:18:22Z
2019-06-09T07:21:10Z,42.805,6.029,13.2949,4.59948,2469.76,2019-6-09T09:21:25Z
2019-06-09T07:24:13Z,42.805,6.029,13.2948,4.59948,2469.76,2019-6-09T09:24:28Z
2019-06-09T07:27:16Z,42.805,6.029,13.2953,4.59947,2469.746,2019-6-09T09:27:31Z
2019-06-09T07:30:19Z,42.805,6.029,13.2950,4.59947,2469.75,2019-6-09T09:30:34Z
2019-06-09T07:33:22Z,42.805,6.029,13.2949,4.59948,2469.69,2019-6-09T09:33:37Z
2019-06-09T07:36:24Z,42.805,6.029,13.2949,4.59948,2469.727,2019-6-09T09:36:40Z
2019-06-09T07:39:27Z,42.805,6.029,13.2952,4.59948,2469.76,2019-6-09T09:39:43Z
2019-06-09T07:42:30Z,42.805,6.029,13.2950,4.59948,2469.713,2019-6-09T09:42:46Z
2019-06-09T07:45:33Z,42.805,6.029,13.2954,4.59948,2469.76,2019-6-09T09:45:49Z
2019-06-09T07:48:36Z,42.805,6.029,13.2951,4.59947,2469.75,2019-6-09T09:48:52Z
2019-06-09T07:51:39Z,42.805,6.029,13.2947,4.59947,2469.737,2019-6-09T09:51:55Z
2019-06-09T07:54:42Z,42.805,6.029,13.2949,4.59947,2469.737,2019-6-09T09:54:58Z
2019-06-09T07:57:45Z,42.805,6.029,13.2947,4.59947,2469.737,2019-6-09T09:58:01Z
2019-06-09T08:00:48Z,42.805,6.029,13.2946,4.59947,2469.773,2019-6-09T10:01:04Z
2019-06-09T08:03:51Z,42.805,6.029,13.2951,4.59948,2469.713,2019-6-09T10:04:07Z
2019-06-09T08:06:54Z,42.805,6.029,13.2944,4.59947,2469.75,2019-6-09T10:07:10Z
2019-06-09T08:09:57Z,42.805,6.029,13.2949,4.59949,2469.75,2019-6-09T10:10:13Z
2019-06-09T08:13:00Z,42.805,6.029,13.2952,4.59947,2469.76,2019-6-09T10:13:15Z
2019-06-09T08:16:03Z,42.805,6.029,13.2952,4.59948,2469.783,2019-6-09T10:16:18Z
2019-06-09T08:19:06Z,42.805,6.029,13.2948,4.59947,2469.75,2019-6-09T10:19:21Z
2019-06-09T08:22:09Z,42.805,6.029,13.2949,4.59948,2469.713,2019-6-09T10:22:24Z
2019-06-09T08:25:12Z,42.805,6.029,13.2949,4.59948,2469.76,2019-6-09T10:25:27Z
2019-06-09T08:28:15Z,42.805,6.029,13.2950,4.59948,2469.773,2019-6-09T10:28:30Z
2019-06-09T08:31:17Z,42.805,6.029,13.2953,4.59947,2469.737,2019-6-09T10:31:33Z
2019-06-09T08:34:20Z,42.805,6.029,13.2951,4.59947,2469.773,2019-6-09T10:34:36Z
2019-06-09T08:37:23Z,42.805,6.029,13.2953,4.59948,2469.737,2019-6-09T10:37:39Z
2019-06-09T08:40:26Z,42.805,6.029,13.2952,4.59948,2469.737,2019-6-09T10:40:42Z
2019-06-09T08:43:29Z,42.805,6.029,13.2951,4.59948,2469.76,2019-6-09T10:43:45Z
2019-06-09T08:46:32Z,42.805,6.029,13.2952,4.59948,2469.75,2019-6-09T10:46:48Z
2019-06-09T08:49:35Z,42.805,6.029,13.2949,4.59948,2469.76,2019-6-09T10:49:51Z
2019-06-09T08:52:38Z,42.805,6.029,13.2950,4.59947,2469.773,2019-6-09T10:52:54Z
2019-06-09T08:55:41Z,42.805,6.029,13.2950,4.59948,2469.723,2019-6-09T10:55:57Z
2019-06-09T08:58:44Z,42.805,6.029,13.2953,4.59947,2469.76,2019-6-09T10:59:00Z
2019-06-09T09:01:47Z,42.805,6.029,13.2951,4.59948,2469.783,2019-6-09T11:02:03Z
2019-06-09T09:04:50Z,42.805,6.029,13.2942,4.59949,2469.737,2019-6-09T11:05:06Z
2019-06-09T09:07:53Z,42.805,6.029,13.2952,4.59950,2469.773,2019-6-09T11:08:09Z
2019-06-09T09:10:56Z,42.805,6.029,13.2952,4.59948,2469.783,2019-6-09T11:11:11Z
2019-06-09T09:13:59Z,42.805,6.029,13.2953,4.59948,2469.76,2019-6-09T11:14:14Z
2019-06-09T09:17:02Z,42.805,6.029,13.2952,4.59949,2469.76,2019-6-09T11:17:17Z
2019-06-09T09:20:05Z,42.805,6.029,13.2947,4.59948,2469.76,2019-6-09T11:20:20Z
2019-06-09T09:23:08Z,42.805,6.029,13.2950,4.59948,2469.797,2019-6-09T11:23:23Z
2019-06-09T09:26:11Z,42.805,6.029,13.2950,4.59948,2469.797,2019-6-09T11:26:26Z
2019-06-09T09:29:14Z,42.805,6.029,13.2951,4.59951,2469.821,2019-6-09T11:29:29Z
2019-06-09T09:32:16Z,42.805,6.029,13.2952,4.59948,2469.773,2019-6-09T11:32:32Z
2019-06-09T09:35:19Z,42.805,6.029,13.2946,4.59948,2469.76,2019-6-09T11:35:35Z
2019-06-09T09:38:22Z,42.805,6.029,13.2952,4.59948,2469.783,2019-6-09T11:38:38Z
2019-06-09T09:41:25Z,42.805,6.029,13.2950,4.59948,2469.783,2019-6-09T11:41:41Z
2019-06-09T09:44:28Z,42.805,6.029,13.2953,4.59948,2469.76,2019-6-09T11:44:44Z
2019-06-09T09:47:31Z,42.805,6.029,13.2956,4.59948,2469.76,2019-6-09T11:47:47Z
2019-06-09T09:50:34Z,42.805,6.029,13.2952,4.59948,2469.783,2019-6-09T11:50:50Z
2019-06-09T09:53:37Z,42.805,6.029,13.2950,4.59947,2469.783,2019-6-09T11:53:53Z
2019-06-09T09:56:40Z,42.805,6.029,13.2951,4.59950,2469.76,2019-6-09T11:56:56Z
2019-06-09T09:59:43Z,42.805,6.029,13.2953,4.59948,2469.797,2019-6-09T11:59:59Z
2019-06-09T10:02:46Z,42.805,6.029,13.2949,4.59948,2469.783,2019-6-09T12:03:02Z
2019-06-09T10:05:49Z,42.805,6.029,13.2952,4.59950,2469.783,2019-6-09T12:06:05Z
2019-06-09T10:08:52Z,42.805,6.029,13.2952,4.59948,2469.797,2019-6-09T12:09:07Z
2019-06-09T10:11:55Z,42.805,6.029,13.2949,4.59949,2469.783,2019-6-09T12:12:10Z
2019-06-09T10:14:58Z,42.805,6.029,13.2952,4.59949,2469.797,2019-6-09T12:15:13Z
2019-06-09T10:18:01Z,42.805,6.029,13.2947,4.59950,2469.783,2019-6-09T12:18:16Z
2019-06-09T10:21:04Z,42.805,6.029,13.2950,4.59949,2469.821,2019-6-09T12:21:19Z
2019-06-09T10:24:07Z,42.805,6.029,13.2948,4.59949,2469.783,2019-6-09T12:24:22Z
2019-06-09T10:27:10Z,42.805,6.029,13.2950,4.59949,2469.797,2019-6-09T12:27:25Z
2019-06-09T10:30:12Z,42.805,6.029,13.2949,4.59949,2469.806,2019-6-09T12:30:28Z
2019-06-09T10:33:15Z,42.805,6.029,13.2952,4.59949,2469.783,2019-6-09T12:33:31Z
2019-06-09T10:36:18Z,42.805,6.029,13.2952,4.59950,2469.821,2019-6-09T12:36:34Z
2019-06-09T10:39:21Z,42.805,6.029,13.2949,4.59949,2469.821,2019-6-09T12:39:37Z
2019-06-09T10:42:24Z,42.805,6.029,13.2952,4.59949,2469.783,2019-6-09T12:42:40Z
2019-06-09T10:45:27Z,42.805,6.029,13.2953,4.59949,2469.821,2019-6-09T12:45:43Z
2019-06-09T10:48:30Z,42.805,6.029,13.2951,4.59949,2469.783,2019-6-09T12:48:46Z
2019-06-09T10:51:33Z,42.805,6.029,13.2948,4.59948,2469.844,2019-6-09T12:51:49Z
2019-06-09T10:54:36Z,42.805,6.029,13.2948,4.59948,2469.797,2019-6-09T12:54:52Z
2019-06-09T10:57:39Z,42.805,6.029,13.2951,4.59949,2469.806,2019-6-09T12:57:55Z
2019-06-09T11:00:42Z,42.805,6.029,13.2948,4.59948,2469.806,2019-6-09T13:00:58Z
2019-06-09T11:03:45Z,42.805,6.029,13.2952,4.59949,2469.83,2019-6-09T13:04:01Z
2019-06-09T11:06:48Z,42.805,6.029,13.2954,4.59948,2469.783,2019-6-09T13:07:04Z
2019-06-09T11:09:51Z,42.805,6.029,13.2953,4.59950,2469.806,2019-6-09T13:10:06Z
2019-06-09T11:12:54Z,42.805,6.029,13.2953,4.59949,2469.783,2019-6-09T13:13:09Z
2019-06-09T11:15:57Z,42.805,6.029,13.2950,4.59950,2469.797,2019-6-09T13:16:12Z
2019-06-09T11:19:00Z,42.805,6.029,13.2951,4.59949,2469.783,2019-6-09T13:19:15Z
2019-06-09T11:22:03Z,42.805,6.029,13.2953,4.59948,2469.844,2019-6-09T13:22:18Z
2019-06-09T11:25:06Z,42.805,6.029,13.2952,4.59949,2469.806,2019-6-09T13:25:21Z
2019-06-09T11:28:08Z,42.805,6.029,13.2948,4.59948,2469.821,2019-6-09T13:28:24Z
2019-06-09T11:31:11Z,42.805,6.029,13.2948,4.59948,2469.806,2019-6-09T13:31:27Z
2019-06-09T11:34:14Z,42.805,6.029,13.2948,4.59948,2469.76,2019-6-09T13:34:30Z
2019-06-09T11:37:17Z,42.805,6.029,13.2953,4.59948,2469.783,2019-6-09T13:37:33Z
2019-06-09T11:40:20Z,42.805,6.029,13.2950,4.59949,2469.806,2019-6-09T13:40:36Z
2019-06-09T11:43:23Z,42.805,6.029,13.2948,4.59948,2469.783,2019-6-09T13:43:39Z
2019-06-09T11:46:26Z,42.805,6.029,13.2950,4.59948,2469.797,2019-6-09T13:46:42Z
2019-06-09T11:49:29Z,42.805,6.029,13.2954,4.59948,2469.783,2019-6-09T13:49:45Z
2019-06-09T11:52:32Z,42.805,6.029,13.2949,4.59948,2469.797,2019-6-09T13:52:48Z
2019-06-09T11:55:35Z,42.805,6.029,13.2947,4.59948,2469.83,2019-6-09T13:55:51Z
2019-06-09T11:58:38Z,42.805,6.029,13.2953,4.59948,2469.806,2019-6-09T13:58:54Z
2019-06-09T12:01:41Z,42.805,6.029,13.2949,4.59949,2469.821,2019-6-09T14:01:57Z
2019-06-09T12:04:44Z,42.805,6.029,13.2947,4.59948,2469.806,2019-6-09T14:05:00Z
2019-06-09T12:07:47Z,42.805,6.029,13.2949,4.59947,2469.797,2019-6-09T14:08:02Z
2019-06-09T12:10:50Z,42.805,6.029,13.2952,4.59948,2469.806,2019-6-09T14:11:05Z
2019-06-09T12:13:53Z,42.805,6.029,13.2950,4.59948,2469.797,2019-6-09T14:14:08Z
2019-06-09T12:16:56Z,42.805,6.029,13.2951,4.59949,2469.783,2019-6-09T14:17:11Z
2019-06-09T12:19:59Z,42.805,6.029,13.2948,4.59948,2469.797,2019-6-09T14:20:14Z
2019-06-09T12:23:02Z,42.805,6.029,13.2951,4.59949,2469.806,2019-6-09T14:23:17Z
2019-06-09T12:26:05Z,42.805,6.029,13.2949,4.59948,2469.806,2019-6-09T14:26:20Z
2019-06-09T12:29:07Z,42.805,6.029,13.2946,4.59949,2469.806,2019-6-09T14:29:23Z
2019-06-09T12:32:10Z,42.805,6.029,13.2948,4.59948,2469.783,2019-6-09T14:32:26Z
2019-06-09T12:35:13Z,42.805,6.029,13.2950,4.59948,2469.783,2019-6-09T14:35:29Z
2019-06-09T12:38:16Z,42.805,6.029,13.2948,4.59948,2469.773,2019-6-09T14:38:32Z
2019-06-09T12:41:19Z,42.805,6.029,13.2948,4.59949,2469.797,2019-6-09T14:41:35Z
2019-06-09T12:44:22Z,42.805,6.029,13.2953,4.59947,2469.76,2019-6-09T14:44:38Z
2019-06-09T12:47:25Z,42.805,6.029,13.2951,4.59951,2469.806,2019-6-09T14:47:41Z
2019-06-09T12:50:28Z,42.805,6.029,13.2948,4.59948,2469.783,2019-6-09T14:50:44Z
2019-06-09T12:53:31Z,42.805,6.029,13.2953,4.59947,2469.806,2019-6-09T14:53:47Z
2019-06-09T12:56:34Z,42.805,6.029,13.2947,4.59947,2469.797,2019-6-09T14:56:50Z
2019-06-09T12:59:37Z,42.805,6.029,13.2951,4.59948,2469.783,2019-6-09T14:59:53Z
2019-06-09T13:02:40Z,42.805,6.029,13.2952,4.59948,2469.75,2019-6-09T15:02:56Z
2019-06-09T13:05:43Z,42.805,6.029,13.2948,4.59948,2469.783,2019-6-09T15:05:59Z
2019-06-09T13:08:46Z,42.805,6.029,13.2949,4.59948,2469.783,2019-6-09T15:09:01Z
2019-06-09T13:11:49Z,42.805,6.029,13.2949,4.59947,2469.797,2019-6-09T15:12:04Z
2019-06-09T13:14:52Z,42.805,6.029,13.2955,4.59950,2469.797,2019-6-09T15:15:07Z
2019-06-09T13:17:55Z,42.805,6.029,13.2950,4.59947,2469.737,2019-6-09T15:18:10Z
2019-06-09T13:20:58Z,42.805,6.029,13.2951,4.59948,2469.76,2019-6-09T15:21:13Z
2019-06-09T13:24:01Z,42.805,6.029,13.2948,4.59947,2469.783,2019-6-09T15:24:16Z
2019-06-09T13:27:03Z,42.805,6.029,13.2949,4.59947,2469.773,2019-6-09T15:27:19Z
2019-06-09T13:30:06Z,42.805,6.029,13.2948,4.59948,2469.769,2019-6-09T15:30:22Z
2019-06-09T13:33:09Z,42.805,6.029,13.2952,4.59948,2469.75,2019-6-09T15:33:25Z
2019-06-09T13:36:12Z,42.805,6.029,13.2950,4.59948,2469.797,2019-6-09T15:36:28Z
2019-06-09T13:39:15Z,42.805,6.029,13.2948,4.59947,2469.76,2019-6-09T15:39:31Z
2019-06-09T13:42:18Z,42.805,6.029,13.2952,4.59948,2469.737,2019-6-09T15:42:34Z
2019-06-09T13:45:21Z,42.805,6.029,13.2949,4.59948,2469.806,2019-6-09T15:45:37Z
2019-06-09T13:48:24Z,42.805,6.029,13.2947,4.59947,2469.746,2019-6-09T15:48:40Z
2019-06-09T13:51:27Z,42.805,6.029,13.2949,4.59948,2469.783,2019-6-09T15:51:43Z
2019-06-09T13:54:30Z,42.805,6.029,13.2952,4.59948,2469.773,2019-6-09T15:54:46Z
2019-06-09T13:57:33Z,42.805,6.029,13.2950,4.59949,2469.797,2019-6-09T15:57:49Z
2019-06-09T14:00:36Z,42.805,6.029,13.2949,4.59949,2469.76,2019-6-09T16:00:52Z
2019-06-09T14:03:39Z,42.805,6.029,13.2949,4.59949,2469.783,2019-6-09T16:03:55Z
2019-06-09T14:06:42Z,42.805,6.029,13.2951,4.59948,2469.783,2019-6-09T16:06:58Z
2019-06-09T14:09:45Z,42.805,6.029,13.2955,4.59948,2469.773,2019-6-09T16:10:00Z
2019-06-09T14:12:48Z,42.805,6.029,13.2953,4.59948,2469.75,2019-6-09T16:13:03Z
2019-06-09T14:15:51Z,42.805,6.029,13.2947,4.59948,2469.773,2019-6-09T16:16:06Z
2019-06-09T14:18:54Z,42.805,6.029,13.2952,4.59948,2469.783,2019-6-09T16:19:09Z
2019-06-09T14:21:57Z,42.805,6.029,13.2953,4.59948,2469.737,2019-6-09T16:22:12Z
2019-06-09T14:25:00Z,42.805,6.029,13.2951,4.59948,2469.76,2019-6-09T16:25:15Z
2019-06-09T14:28:02Z,42.805,6.029,13.2951,4.59948,2469.783,2019-6-09T16:28:18Z
2019-06-09T14:31:05Z,42.805,6.029,13.2950,4.59948,2469.773,2019-6-09T16:31:21Z
2019-06-09T14:34:08Z,42.805,6.029,13.2948,4.59949,2469.75,2019-6-09T16:34:24Z
2019-06-09T14:37:11Z,42.805,6.029,13.2951,4.59948,2469.76,2019-6-09T16:37:27Z
2019-06-09T14:40:14Z,42.805,6.029,13.2948,4.59948,2469.737,2019-6-09T16:40:30Z
2019-06-09T14:43:17Z,42.805,6.029,13.2952,4.59950,2469.76,2019-6-09T16:43:33Z
2019-06-09T14:46:20Z,42.805,6.029,13.2953,4.59948,2469.76,2019-6-09T16:46:36Z
2019-06-09T14:49:23Z,42.805,6.029,13.2951,4.59950,2469.727,2019-6-09T16:49:39Z
2019-06-09T14:52:26Z,42.805,6.029,13.2948,4.59948,2469.773,2019-6-09T16:52:42Z
2019-06-09T14:55:29Z,42.805,6.029,13.2949,4.59949,2469.737,2019-6-09T16:55:45Z
2019-06-09T14:58:32Z,42.805,6.029,13.2952,4.59948,2469.76,2019-6-09T16:58:48Z
2019-06-09T15:01:35Z,42.805,6.029,13.2950,4.59948,2469.773,2019-6-09T17:01:51Z
2019-06-09T15:04:38Z,42.805,6.029,13.2947,4.59949,2469.727,2019-6-09T17:04:54Z
2019-06-09T15:07:41Z,42.805,6.029,13.2948,4.59949,2469.773,2019-6-09T17:07:56Z
2019-06-09T15:10:44Z,42.805,6.029,13.2948,4.59951,2469.737,2019-6-09T17:10:59Z
2019-06-09T15:13:47Z,42.805,6.029,13.2949,4.59948,2469.727,2019-6-09T17:14:02Z